Location: Unspecified
(28.3162°N, 0.0000°E)
Time: 03:51:40
(UTC+00:00)

FORMOSAT 3E - Visible Passes

Search period start: 04 April 2026 00:00
Search period end: 14 April 2026 00:00
Orbit: 738 x 835 km, 72.0° (Epoch: 29 March)

Date Brightness Start Highest point End Pass type
(mag) Time Alt. Az. Time Alt. Az. Time Alt. Az.
4 Apr 11.3 03:08:01 10° NE 03:09:00 10° ENE 03:09:59 10° ENE visible
4 Apr 7.9 04:46:55 10° NNW 04:52:13 70° WSW 04:57:22 10° S visible
4 Apr 11.4 19:23:59 10° W 19:26:09 12° WNW 19:28:20 10° NW visible
5 Apr 8.2 04:15:21 10° NNW 04:20:41 73° ENE 04:25:51 10° SSE visible
5 Apr 11.1 18:50:28 10° WSW 18:54:21 19° WNW 18:58:16 10° NNW visible
6 Apr 9.0 03:43:58 10° N 03:49:05 45° ENE 03:54:01 10° SE visible
7 Apr 9.9 03:12:48 10° N 03:17:24 29° ENE 03:21:51 10° SE visible
7 Apr 9.0 04:55:44 10° NW 04:59:52 24° W 05:03:55 10° SSW visible
8 Apr 10.5 02:41:59 10° NNE 02:45:40 19° ENE 02:49:15 10° ESE visible
8 Apr 8.4 04:23:35 10° NW 04:28:26 38° WSW 04:33:11 10° S visible
9 Apr 10.9 02:11:59 10° NE 02:13:51 12° ENE 02:15:42 10° E visible
9 Apr 7.9 03:51:45 10° NNW 03:56:58 62° WSW 04:02:02 10° S visible
10 Apr 9.1 03:20:07 10° NNW 03:23:07 34° NNW 03:23:07 34° NNW visible
11 Apr 10.1 02:48:41 10° N 02:50:17 19° N 02:50:17 19° N visible
12 Apr 10.7 02:17:28 10° N 02:18:06 13° N 02:18:06 13° N visible
